Погода в Алексеевке

Украина / Харьковская область     49°23′38″N   36°17′20″E
темп.,
°C
ветер,
м/с
пор.,
м/с
влажн.,
%
обл.,
%
осадки,
мм/ч
давл.,
гПа
погр.,
м
23 апреля, пт
пт2300:00+11ююз3770100 0.0 1020145
03:00+9ююз487998 0.0 1020171
06:00+7ю48925 0.0 1020162
09:00+12ююз68666 0.0 1019614
12:00+16ююз785213 0.0 10181565
15:00+17ююз7945100 0.3 10162543
18:00+14юз71257100 0.0 1015626
21:00+10юз61185100 1.3 10161113
24 апреля, сб
сб2400:00+9з3593100 2.7 1014428
03:00+6сз7991100 6.8 1015849
06:00+5з378617 0.9 1015461
09:00+8з79665 1.0 10161055
12:00+10з1014445 0.3 10162275
15:00+9зсз111440100 0.3 10172681
18:00+7з8134847 0.1 10182261
21:00+4зсз49580 0.1 1020314
25 апреля, вс
вс2500:00+3зюз49660 0.0 1021238
03:00+1з4107125 0.0 1021224
06:00+1зюз367455 0.0 1022143
09:00+7зюз355112 0.0 1022764
12:00+9зюз6747100 0.0 10211983
15:00+11зюз5845100 0.0 10192172
18:00+11юз464958 0.0 10181711
21:00+8юз356680 0.0 101896
26 апреля, пн
пн2600:00+5сз228863 0.0 101824
03:00+4ссз359698 0.0 1018190
06:00+3ссз4596100 0.6 1018341
09:00+1ссв2399100 4.0 1017127
12:00+2зсз12100100 5.0 1017242
15:00+7з257280 5.8 10161126
18:00+7з476917 0.4 1015806
21:00+3з35755 0.4 101667
27 апреля, вт
вт2700:00+2зюз36815 0.0 101790
03:00+2з35845 0.0 101781
06:00+1зюз36843 0.0 1017106
09:00+6з4662100 0.0 1018542
12:00+7з5654100 0.0 10181491
15:00+6зюз4573100 0.9 1018804
18:00+7юз347098 0.1 10171045
21:00+3ююз35945 0.1 1019105